M I D A S
Marine Information and Data Acquisition System
Tripno 1213 of the Zeeleeuw from 2007-02-19 08:25:30 to 2007-02-19 16:47:37
Back to CruiseResearch ActivitiesStationsMapUnderway DataData graphs

EquipmentUnitsComment
TimeDGPSUTC
LatitudeDGPSDM.mWGS84
LongitudeDGPSDM.mWGS84
HeadingGyrodeg 
SOGDGPSknotsSpeed over ground
COGDGPSdegCourse over ground
DepthEcho soundermeters200 kHz
Missing or incorrect values are displayed as -999
Navigation data collected by the RV Zeeleeuw from 2007-02-19 08:29:15 to 2007-02-19 16:56:02
                                                                                    Next 1000 lines
Time Latitude Longitude Heading SOG COG Depth
2007-02-19 08:29:26 51°13.597 2°56.093 113.9 0.6 299 5.4
2007-02-19 08:29:31 51°13.598 2°56.091 113.9 0.8 294 5.6
2007-02-19 08:29:36 51°13.599 2°56.089 114.1 1.2 296 5.4
2007-02-19 08:29:41 51°13.599 2°56.086 114.6 1.5 295 5.5
2007-02-19 08:29:46 51°13.6 2°56.082 114.8 1.8 296 5.7
2007-02-19 08:29:52 51°13.602 2°56.077 114.8 2.1 295 -999
2007-02-19 08:29:57 51°13.603 2°56.072 114.6 2.2 294 -999
2007-02-19 08:30:02 51°13.604 2°56.068 114.2 2.3 293 -999
2007-02-19 08:30:08 51°13.606 2°56.062 113.9 2.5 293 -999
2007-02-19 08:30:14 51°13.607 2°56.055 113.9 2.7 293 -999
2007-02-19 08:30:19 51°13.609 2°56.049 113.9 2.9 292 -999
2007-02-19 08:30:24 51°13.611 2°56.043 114.6 3.1 293 -999
2007-02-19 08:30:29 51°13.612 2°56.036 115.4 3.2 293 -999
2007-02-19 08:30:34 51°13.614 2°56.029 116.2 3.5 294 -999
2007-02-19 08:30:39 51°13.617 2°56.022 117.3 3.6 295 -999
2007-02-19 08:30:44 51°13.619 2°56.015 118.5 3.8 295 -999
2007-02-19 08:30:49 51°13.621 2°56.007 119.2 3.9 295 -999
2007-02-19 08:30:54 51°13.623 2°55.999 119.9 4 295 -999
2007-02-19 08:31:00 51°13.627 2°55.989 121 4.1 297 -999
2007-02-19 08:31:04 51°13.629 2°55.983 122.1 4.3 298 -999
2007-02-19 08:31:09 51°13.632 2°55.974 123.3 4.3 299 -999
2007-02-19 08:31:14 51°13.635 2°55.966 124.1 4.3 300 -999
2007-02-19 08:31:19 51°13.638 2°55.958 125.5 4.4 301 -999
2007-02-19 08:31:24 51°13.641 2°55.95 126.4 4.4 302 -999
2007-02-19 08:31:29 51°13.644 2°55.942 127.2 4.4 303 -999
2007-02-19 08:31:34 51°13.648 2°55.934 128.4 4.4 304 -999
2007-02-19 08:31:39 51°13.652 2°55.925 129.3 4.5 305 -999
2007-02-19 08:31:44 51°13.655 2°55.917 129.9 4.5 306 -999
2007-02-19 08:31:49 51°13.659 2°55.909 130.6 4.5 307 -999
2007-02-19 08:31:54 51°13.663 2°55.901 131 4.6 307 -999
2007-02-19 08:31:59 51°13.667 2°55.893 131.3 4.7 308 -999
2007-02-19 08:32:04 51°13.671 2°55.884 131.7 4.8 308 -999
2007-02-19 08:32:09 51°13.675 2°55.876 132 5 309 -999
2007-02-19 08:32:14 51°13.68 2°55.867 132 4.9 309 -999
2007-02-19 08:32:19 51°13.684 2°55.859 132 4.7 309 -999
2007-02-19 08:32:24 51°13.688 2°55.851 131.7 4.7 309 -999
2007-02-19 08:32:29 51°13.692 2°55.843 131.3 4.7 308 -999
2007-02-19 08:32:34 51°13.696 2°55.835 130.7 4.7 308 4.6
2007-02-19 08:32:39 51°13.7 2°55.827 130.2 4.5 308 -999
2007-02-19 08:32:44 51°13.704 2°55.819 129.2 4.4 307 -999
2007-02-19 08:32:49 51°13.707 2°55.812 128.3 4.2 306 -999
2007-02-19 08:32:54 51°13.71 2°55.804 127.1 4.1 305 -999
2007-02-19 08:32:59 51°13.713 2°55.797 126.2 4.1 304 4.6
2007-02-19 08:33:04 51°13.716 2°55.789 125.3 4 303 4.7
2007-02-19 08:33:09 51°13.719 2°55.782 124.3 3.9 302 4.8
2007-02-19 08:33:14 51°13.722 2°55.775 123 3.8 301 4.8
2007-02-19 08:33:19 51°13.724 2°55.768 121.3 3.7 300 -999
2007-02-19 08:33:24 51°13.727 2°55.761 120.1 3.6 298 10.3
2007-02-19 08:33:28 51°13.729 2°55.755 118.6 3.5 298 10.5
2007-02-19 08:33:33 51°13.731 2°55.749 116.9 3.5 297 10.4
2007-02-19 08:33:38 51°13.733 2°55.742 115.4 3.3 296 10.2
2007-02-19 08:33:43 51°13.735 2°55.736 113.7 3.2 296 9.9
2007-02-19 08:33:47 51°13.736 2°55.731 112.1 3.1 294 9.4
2007-02-19 08:33:52 51°13.738 2°55.725 110.4 3 293 9.1
2007-02-19 08:33:57 51°13.74 2°55.719 108.8 2.9 292 9
2007-02-19 08:34:02 51°13.741 2°55.713 107.3 2.8 292 8.8
2007-02-19 08:34:06 51°13.742 2°55.708 105.6 2.7 290 8.7
2007-02-19 08:34:11 51°13.743 2°55.703 104.1 2.4 291 9.2
2007-02-19 08:34:16 51°13.744 2°55.698 102.5 2.2 290 9.2
2007-02-19 08:34:21 51°13.745 2°55.694 100.2 1.9 292 9.3
2007-02-19 08:34:26 51°13.746 2°55.691 97.9 1.5 291 9.3
2007-02-19 08:34:31 51°13.746 2°55.688 95.2 1.4 295 9.3
2007-02-19 08:34:36 51°13.747 2°55.686 92.8 1.1 298 9.6
2007-02-19 08:34:41 51°13.748 2°55.685 90 0.8 309 9.7
2007-02-19 08:34:45 51°13.748 2°55.684 86.6 0.6 330 9.7
2007-02-19 08:34:51 51°13.749 2°55.684 82.7 0.6 358 9.6
2007-02-19 08:34:56 51°13.75 2°55.684 78.4 0.6 15 9.5
2007-02-19 08:35:01 51°13.751 2°55.685 73.8 0.7 19 9.5
2007-02-19 08:35:05 51°13.752 2°55.685 69.2 0.7 17 9.5
2007-02-19 08:35:11 51°13.753 2°55.685 65.2 0.6 3 9.5
2007-02-19 08:35:16 51°13.754 2°55.685 61.9 0.5 344 9.5
2007-02-19 08:35:21 51°13.754 2°55.684 58.7 0.5 308 9.4
2007-02-19 08:35:26 51°13.754 2°55.683 55.7 0.6 272 9.4
2007-02-19 08:35:31 51°13.754 2°55.681 52.9 0.9 264 9.4
2007-02-19 08:35:36 51°13.754 2°55.679 50.4 1 254 9.4
2007-02-19 08:35:41 51°13.753 2°55.676 47.9 1.1 250 9.5
2007-02-19 08:35:46 51°13.753 2°55.674 45.7 1.1 249 9.5
2007-02-19 08:35:51 51°13.752 2°55.672 43.6 1 246 9.5
2007-02-19 08:35:55 51°13.751 2°55.671 41.7 0.9 245 9.7
2007-02-19 08:36:01 51°13.751 2°55.669 39.7 0.7 260 4.6
2007-02-19 08:36:06 51°13.752 2°55.668 37.5 0.4 332 4.7
2007-02-19 08:36:11 51°13.753 2°55.668 33.5 0.8 358 5
2007-02-19 08:36:16 51°13.754 2°55.668 28 1 1 4.7
2007-02-19 08:36:21 51°13.756 2°55.668 23.2 1.1 355 9.5
2007-02-19 08:36:26 51°13.758 2°55.667 18 1.3 359 9.5
2007-02-19 08:36:31 51°13.76 2°55.667 13.1 1.6 355 9.4
2007-02-19 08:36:36 51°13.762 2°55.666 8.5 1.9 351 9.6
2007-02-19 08:36:41 51°13.765 2°55.665 1.1 2.2 347 9.7
2007-02-19 08:36:46 51°13.769 2°55.664 355 2.5 343 9.6
2007-02-19 08:36:51 51°13.772 2°55.662 349.7 2.9 341 9.6
2007-02-19 08:36:56 51°13.776 2°55.659 345.6 3.2 339 9.5
2007-02-19 08:37:01 51°13.781 2°55.656 343.7 3.5 339 9.5
2007-02-19 08:37:06 51°13.786 2°55.653 343.2 4 339 9.6
2007-02-19 08:37:11 51°13.792 2°55.65 343.1 4.6 339 9.5
2007-02-19 08:37:16 51°13.799 2°55.646 343 5.2 339 9.5
2007-02-19 08:37:21 51°13.806 2°55.641 342.7 5.7 339 9.5
2007-02-19 08:37:25 51°13.812 2°55.637 342.2 6.1 338 9.3
2007-02-19 08:37:31 51°13.822 2°55.63 341.6 6.6 338 9.4
2007-02-19 08:37:36 51°13.831 2°55.624 341.5 6.9 338 9.3
2007-02-19 08:37:41 51°13.84 2°55.617 341.1 7.2 336 9.3
2007-02-19 08:37:45 51°13.848 2°55.612 340.2 7.6 336 9.3
2007-02-19 08:37:51 51°13.859 2°55.604 340.3 7.7 337 9.2
2007-02-19 08:37:56 51°13.87 2°55.597 341.2 8 337 9.1
2007-02-19 08:38:01 51°13.88 2°55.59 341.7 8.2 337 9.3
2007-02-19 08:38:05 51°13.889 2°55.584 341.8 8.3 337 9.3
2007-02-19 08:38:11 51°13.902 2°55.576 341.9 8.5 337 9.2
2007-02-19 08:38:15 51°13.911 2°55.57 342.2 8.6 338 9.3
2007-02-19 08:38:21 51°13.924 2°55.562 342.5 8.7 339 9.2
2007-02-19 08:38:26 51°13.935 2°55.555 343.3 8.8 341 9.2
2007-02-19 08:38:31 51°13.947 2°55.549 344.7 8.8 341 9.2
2007-02-19 08:38:36 51°13.959 2°55.542 345.2 9 341 9.1
2007-02-19 08:38:41 51°13.971 2°55.536 345.2 9.1 341 9.2
2007-02-19 08:38:46 51°13.983 2°55.529 345 9.1 341 9.3
2007-02-19 08:38:51 51°13.995 2°55.523 345.2 9.2 341 9.2
2007-02-19 08:38:56 51°14.007 2°55.516 344.7 9.2 340 9.3
2007-02-19 08:39:01 51°14.02 2°55.509 344.5 9.2 341 9.2
2007-02-19 08:39:06 51°14.032 2°55.503 345.1 9.2 341 9.3
2007-02-19 08:39:11 51°14.044 2°55.495 344 9.2 338 9.3
2007-02-19 08:39:16 51°14.056 2°55.488 342.6 9.2 338 9.4
2007-02-19 08:39:21 51°14.067 2°55.48 341.8 9.2 337 9.4
2007-02-19 08:39:26 51°14.079 2°55.472 341.6 9.2 337 9.5
2007-02-19 08:39:31 51°14.091 2°55.463 340.4 9.3 336 9.5
2007-02-19 08:39:36 51°14.102 2°55.455 340.1 9.2 336 9.5
2007-02-19 08:39:41 51°14.114 2°55.446 340.1 9.2 336 9.6
2007-02-19 08:39:46 51°14.126 2°55.438 339.8 9.2 335 9.6
2007-02-19 08:39:51 51°14.137 2°55.429 338.3 9.2 333 9.6
2007-02-19 08:39:56 51°14.148 2°55.419 336.5 9.2 331 9.6
2007-02-19 08:40:01 51°14.159 2°55.409 335 9.2 330 9.6
2007-02-19 08:40:06 51°14.17 2°55.398 333.8 9.2 328 9.6
2007-02-19 08:40:11 51°14.18 2°55.387 331.9 9.2 327 9.7
2007-02-19 08:40:16 51°14.191 2°55.376 330.3 9.2 325 9.6
2007-02-19 08:40:21 51°14.201 2°55.364 328.7 9.1 324 9.7
2007-02-19 08:40:26 51°14.211 2°55.351 327.5 9.2 322 9.7
2007-02-19 08:40:31 51°14.221 2°55.338 325.5 9.1 320 9.7
2007-02-19 08:40:36 51°14.23 2°55.325 324.3 9.1 319 -999
2007-02-19 08:40:41 51°14.24 2°55.312 322.9 9.1 318 -999
2007-02-19 08:40:47 51°14.25 2°55.295 320.2 9.1 315 -999
2007-02-19 08:40:52 51°14.259 2°55.28 317.8 9.1 313 -999
2007-02-19 08:40:58 51°14.269 2°55.262 316.2 9.1 312 -999
2007-02-19 08:41:03 51°14.277 2°55.247 315.3 9.1 311 10.4
2007-02-19 08:41:08 51°14.286 2°55.232 314.6 9.1 310 10.2
2007-02-19 08:41:14 51°14.295 2°55.212 313.3 9.1 307 -999
2007-02-19 08:41:19 51°14.302 2°55.196 311.7 9.1 307 -999
2007-02-19 08:41:24 51°14.31 2°55.18 310.6 9.1 306 10.1
2007-02-19 08:41:29 51°14.317 2°55.164 310.4 9.1 307 9.7
2007-02-19 08:41:34 51°14.325 2°55.148 310.1 9.1 307 9.8
2007-02-19 08:41:38 51°14.331 2°55.135 310 9.1 307 9.2
2007-02-19 08:41:43 51°14.339 2°55.119 310 9.2 308 9.1
2007-02-19 08:41:48 51°14.347 2°55.102 310.8 9.5 308 8.9
2007-02-19 08:41:53 51°14.355 2°55.085 311.6 9.8 308 8.9
2007-02-19 08:41:57 51°14.362 2°55.071 311.7 10 308 8.7
2007-02-19 08:42:02 51°14.371 2°55.053 311.8 10.2 307 9.1
2007-02-19 08:42:07 51°14.38 2°55.035 311.8 10.5 306 9.2
2007-02-19 08:42:12 51°14.388 2°55.015 311.3 10.6 305 9.3
2007-02-19 08:42:17 51°14.396 2°54.995 309.4 10.8 301 8.9
2007-02-19 08:42:21 51°14.401 2°54.978 306.4 10.9 297 8.9
2007-02-19 08:42:26 51°14.408 2°54.956 303.5 11.1 294 8.9
2007-02-19 08:42:31 51°14.414 2°54.933 300.6 11.2 293 9.1
2007-02-19 08:42:35 51°14.418 2°54.914 298.7 11.4 292 9.2
2007-02-19 08:42:41 51°14.426 2°54.886 297.8 11.5 292 9
2007-02-19 08:42:46 51°14.432 2°54.862 298.3 11.6 292 9.2
2007-02-19 08:42:51 51°14.437 2°54.838 297.9 11.6 289 9
2007-02-19 08:42:55 51°14.441 2°54.818 295.6 11.7 287 9.6
2007-02-19 08:43:01 51°14.445 2°54.788 291.8 11.7 282 9
2007-02-19 08:43:06 51°14.447 2°54.762 288.1 11.7 277 8.9
2007-02-19 08:43:11 51°14.448 2°54.736 283 11.8 273 8.8
2007-02-19 08:43:16 51°14.448 2°54.71 278.8 11.8 271 8.9
2007-02-19 08:43:21 51°14.448 2°54.684 276.2 11.9 270 9.6
2007-02-19 08:43:26 51°14.447 2°54.658 274.8 11.9 268 9.2
2007-02-19 08:43:31 51°14.446 2°54.632 272.5 11.9 266 9.2
2007-02-19 08:43:36 51°14.444 2°54.605 270 11.9 262 9
2007-02-19 08:43:41 51°14.441 2°54.58 266.3 11.9 259 9.5
2007-02-19 08:43:45 51°14.438 2°54.559 263.3 12 257 8.9
2007-02-19 08:43:51 51°14.432 2°54.529 259.3 12 253 9
2007-02-19 08:43:56 51°14.426 2°54.504 256.6 12 250 9.1
2007-02-19 08:44:01 51°14.419 2°54.48 253.1 12 246 9
2007-02-19 08:44:06 51°14.412 2°54.456 249.3 11.9 243 8.3
2007-02-19 08:44:11 51°14.403 2°54.433 245.4 11.9 240 8.1
2007-02-19 08:44:16 51°14.395 2°54.411 242.7 11.9 239 7.9
2007-02-19 08:44:21 51°14.386 2°54.388 241.4 12 238 7.8
2007-02-19 08:44:26 51°14.377 2°54.366 240.9 12 238 7.8
2007-02-19 08:44:31 51°14.368 2°54.343 240.8 12 238 7.8
2007-02-19 08:44:35 51°14.361 2°54.325 240.8 12.1 238 7.8
2007-02-19 08:44:41 51°14.351 2°54.298 240.9 12.1 238 7.7
2007-02-19 08:44:46 51°14.342 2°54.275 241.3 12.1 238 7.7
2007-02-19 08:44:51 51°14.333 2°54.252 241.4 12.2 239 7.6
2007-02-19 08:44:56 51°14.325 2°54.229 241.6 12.2 239 7.6
2007-02-19 08:45:01 51°14.316 2°54.206 242 12.2 239 7.6
2007-02-19 08:45:05 51°14.309 2°54.187 242 12.2 239 7.6
2007-02-19 08:45:11 51°14.299 2°54.159 242.3 12.2 240 7.6
2007-02-19 08:45:16 51°14.29 2°54.136 242.3 12.3 239 7.5
2007-02-19 08:45:21 51°14.281 2°54.113 242.3 12.2 239 7.5
2007-02-19 08:45:26 51°14.273 2°54.09 242.2 12.2 239 5.5
2007-02-19 08:45:31 51°14.264 2°54.066 242.2 12.3 239 5.5
2007-02-19 08:45:36 51°14.255 2°54.043 242 12.3 239 -999
2007-02-19 08:45:41 51°14.246 2°54.02 242 12.3 239 5.6
2007-02-19 08:45:45 51°14.239 2°54.001 242 12.3 239 7.5
2007-02-19 08:45:51 51°14.228 2°53.973 242 12.3 239 7.5
2007-02-19 08:45:56 51°14.22 2°53.949 242.2 12.3 239 7.5
2007-02-19 08:46:01 51°14.211 2°53.926 242.4 12.4 240 7.5
2007-02-19 08:46:06 51°14.202 2°53.902 243 12.4 240 7.5
2007-02-19 08:46:11 51°14.193 2°53.879 243 12.4 240 5.6
2007-02-19 08:46:16 51°14.184 2°53.855 242.6 12.4 239 7.6
2007-02-19 08:46:21 51°14.175 2°53.832 242.2 12.4 239 7.5
2007-02-19 08:46:25 51°14.168 2°53.813 242.1 12.4 238 7.5
2007-02-19 08:46:31 51°14.157 2°53.785 241.8 12.4 239 7.6
2007-02-19 08:46:36 51°14.148 2°53.762 241.6 12.4 239 7.6
2007-02-19 08:46:41 51°14.139 2°53.738 241.7 12.5 239 7.7
2007-02-19 08:46:45 51°14.132 2°53.719 241.9 12.4 239 7.6
2007-02-19 08:46:51 51°14.121 2°53.691 242.1 12.4 239 7.6
2007-02-19 08:46:56 51°14.112 2°53.667 242.1 12.4 239 7.6
2007-02-19 08:47:01 51°14.103 2°53.643 242.3 12.5 239 7.7
2007-02-19 08:47:06 51°14.094 2°53.62 242.4 12.5 239 7.7
2007-02-19 08:47:11 51°14.086 2°53.596 242.5 12.5 240 7.7
2007-02-19 08:47:15 51°14.079 2°53.577 242.7 12.5 239 7.7
2007-02-19 08:47:21 51°14.068 2°53.549 242.6 12.5 239 7.8
2007-02-19 08:47:26 51°14.059 2°53.525 242.4 12.5 239 7.7
2007-02-19 08:47:31 51°14.05 2°53.501 242.3 12.5 239 7.8
2007-02-19 08:47:36 51°14.041 2°53.477 242.3 12.5 239 7.8
2007-02-19 08:47:41 51°14.032 2°53.454 242.4 12.5 239 7.8
2007-02-19 08:47:46 51°14.023 2°53.43 242.7 12.5 239 7.8
2007-02-19 08:47:51 51°14.014 2°53.406 242.6 12.6 239 7.8
2007-02-19 08:47:56 51°14.006 2°53.383 242.5 12.6 239 7.9
2007-02-19 08:48:01 51°13.997 2°53.359 242.5 12.5 239 7.9
2007-02-19 08:48:06 51°13.989 2°53.336 242.5 12.6 239 7.9
2007-02-19 08:48:11 51°13.98 2°53.312 242.5 12.6 239 7.9
2007-02-19 08:48:16 51°13.971 2°53.288 242.5 12.6 239 7.9
2007-02-19 08:48:21 51°13.962 2°53.264 242.5 12.6 240 8
2007-02-19 08:48:26 51°13.953 2°53.24 242.9 12.6 239 8
2007-02-19 08:48:31 51°13.944 2°53.216 243 12.6 240 8
2007-02-19 08:48:36 51°13.935 2°53.192 243.3 12.6 239 8
2007-02-19 08:48:41 51°13.926 2°53.168 243.3 12.6 240 8.1
2007-02-19 08:48:46 51°13.917 2°53.144 243.1 12.7 239 8.1
2007-02-19 08:48:51 51°13.909 2°53.12 243.1 12.6 240 8.1
2007-02-19 08:48:56 51°13.899 2°53.096 243.1 12.6 239 8.2
2007-02-19 08:49:01 51°13.891 2°53.072 243 12.6 240 8.2
2007-02-19 08:49:06 51°13.882 2°53.048 243.1 12.7 239 8.2
2007-02-19 08:49:11 51°13.873 2°53.024 243.1 12.6 240 8.2
2007-02-19 08:49:16 51°13.864 2°52.999 243.1 12.7 240 8.2
2007-02-19 08:49:21 51°13.855 2°52.975 243.1 12.7 240 8.2
2007-02-19 08:49:26 51°13.846 2°52.951 243.1 12.7 239 8.4
2007-02-19 08:49:31 51°13.837 2°52.927 243.1 12.7 240 8.3
2007-02-19 08:49:36 51°13.828 2°52.903 243.3 12.7 240 8.3
2007-02-19 08:49:41 51°13.819 2°52.878 243.4 12.7 240 8.6
2007-02-19 08:49:45 51°13.812 2°52.859 243.8 12.7 240 8.2
2007-02-19 08:49:51 51°13.802 2°52.83 243.6 12.7 240 8.9
2007-02-19 08:49:56 51°13.793 2°52.805 243.4 12.8 240 8.3
2007-02-19 08:50:01 51°13.784 2°52.78 243.4 13.1 240 8.3
2007-02-19 08:50:06 51°13.774 2°52.755 243.3 13.3 240 8.3
2007-02-19 08:50:11 51°13.765 2°52.729 243.4 13.6 240 8.4
2007-02-19 08:50:16 51°13.755 2°52.703 243.7 13.7 240 8.3
2007-02-19 08:50:21 51°13.746 2°52.676 243.6 13.9 240 8.3
2007-02-19 08:50:26 51°13.736 2°52.649 243.6 14 240 8.3
2007-02-19 08:50:31 51°13.726 2°52.622 243.3 14.1 239 8.3
2007-02-19 08:50:36 51°13.716 2°52.595 243.1 14.2 239 8.3
2007-02-19 08:50:41 51°13.706 2°52.568 242.9 14.3 240 8.3
2007-02-19 08:50:46 51°13.696 2°52.54 242.8 14.4 240 8.3
2007-02-19 08:50:51 51°13.686 2°52.513 243.2 14.4 239 8.2
2007-02-19 08:50:56 51°13.675 2°52.485 242.6 14.5 240 8.3
2007-02-19 08:51:01 51°13.665 2°52.458 242.8 14.5 238 8.4
2007-02-19 08:51:06 51°13.655 2°52.43 242.4 14.6 239 8.3
2007-02-19 08:51:11 51°13.644 2°52.403 242.4 14.6 239 8.4
2007-02-19 08:51:16 51°13.633 2°52.375 242.4 14.6 238 8.4
2007-02-19 08:51:21 51°13.623 2°52.347 241.9 14.7 239 8.4
2007-02-19 08:51:26 51°13.612 2°52.319 241.9 14.8 239 8.4
2007-02-19 08:51:31 51°13.602 2°52.291 242.3 14.8 239 8.4
2007-02-19 08:51:36 51°13.592 2°52.263 242.4 14.7 239 8.5
2007-02-19 08:51:41 51°13.581 2°52.235 242.6 14.8 240 8.5
2007-02-19 08:51:46 51°13.571 2°52.207 242.9 14.8 240 8.5
2007-02-19 08:51:51 51°13.56 2°52.178 243 14.8 240 8.5
2007-02-19 08:51:56 51°13.551 2°52.15 243.6 14.8 241 8.5
2007-02-19 08:52:01 51°13.541 2°52.121 244.1 14.9 241 8.6
2007-02-19 08:52:06 51°13.531 2°52.092 244.8 14.9 241 8.6
2007-02-19 08:52:11 51°13.521 2°52.063 245 14.9 242 8.6
2007-02-19 08:52:16 51°13.512 2°52.033 245.9 14.9 243 8.6
2007-02-19 08:52:21 51°13.502 2°52.004 246.6 14.9 243 8.6
2007-02-19 08:52:26 51°13.493 2°51.975 246.9 14.9 243 8.6
2007-02-19 08:52:31 51°13.484 2°51.945 247.3 14.9 244 8.6
2007-02-19 08:52:36 51°13.474 2°51.916 246.7 14.9 242 8.6
2007-02-19 08:52:41 51°13.465 2°51.887 246 14.9 242 8.6
2007-02-19 08:52:46 51°13.454 2°51.858 245.1 15 241 8.7
2007-02-19 08:52:51 51°13.444 2°51.829 244.8 14.9 242 8.6
2007-02-19 08:52:56 51°13.434 2°51.8 244.6 15 241 8.7
2007-02-19 08:53:01 51°13.424 2°51.771 244.4 15 241 8.7
2007-02-19 08:53:06 51°13.414 2°51.743 244 14.9 240 8.7
2007-02-19 08:53:11 51°13.404 2°51.714 243.8 15 241 8.7
2007-02-19 08:53:16 51°13.394 2°51.685 244 15 241 8.8
2007-02-19 08:53:21 51°13.383 2°51.656 244.2 15 240 8.7
2007-02-19 08:53:26 51°13.374 2°51.627 244.2 14.9 242 8.7
2007-02-19 08:53:31 51°13.363 2°51.598 244.6 15 241 8.7
2007-02-19 08:53:36 51°13.354 2°51.569 244.7 15 242 8.7
2007-02-19 08:53:41 51°13.344 2°51.54 245.5 15 242 8.7
2007-02-19 08:53:46 51°13.334 2°51.51 245.7 15 243 8.7
2007-02-19 08:53:51 51°13.325 2°51.48 247 15 244 8.8
2007-02-19 08:53:56 51°13.316 2°51.451 247.2 15 243 8.8
2007-02-19 08:54:01 51°13.307 2°51.421 247.3 15 243 8.7
2007-02-19 08:54:06 51°13.297 2°51.392 247.1 15 243 8.8
2007-02-19 08:54:11 51°13.287 2°51.362 246.4 15 242 8.7
2007-02-19 08:54:16 51°13.277 2°51.333 245.8 15 241 8.8
2007-02-19 08:54:21 51°13.267 2°51.304 245 15.1 242 8.8
2007-02-19 08:54:26 51°13.257 2°51.275 244.7 15 240 8.8
2007-02-19 08:54:31 51°13.247 2°51.246 243.7 15 241 8.8
2007-02-19 08:54:36 51°13.236 2°51.218 243.7 15.1 239 8.9
2007-02-19 08:54:41 51°13.226 2°51.189 243.1 15.1 241 8.8
2007-02-19 08:54:46 51°13.215 2°51.16 243.6 15.1 240 8.9
2007-02-19 08:54:51 51°13.205 2°51.131 243.8 15.1 241 8.9
2007-02-19 08:54:56 51°13.195 2°51.101 244.4 15.1 242 8.9
2007-02-19 08:55:01 51°13.185 2°51.072 244.9 15.1 242 9
2007-02-19 08:55:06 51°13.176 2°51.042 245.5 15.1 242 8.9
2007-02-19 08:55:11 51°13.166 2°51.013 245.8 15.1 243 9
2007-02-19 08:55:16 51°13.157 2°50.983 246.2 15.1 243 9
2007-02-19 08:55:21 51°13.147 2°50.953 246.7 15.1 243 9
2007-02-19 08:55:26 51°13.138 2°50.923 246.9 15.1 243 9.1
2007-02-19 08:55:31 51°13.128 2°50.893 247 15.1 244 9.1
2007-02-19 08:55:36 51°13.119 2°50.864 247.2 15.1 243 9.1
2007-02-19 08:55:41 51°13.109 2°50.834 246.7 15.1 243 9.1
2007-02-19 08:55:46 51°13.099 2°50.805 246.3 15.1 242 9
2007-02-19 08:55:51 51°13.089 2°50.775 245.5 15.1 242 9
2007-02-19 08:55:56 51°13.079 2°50.746 245.2 15.1 241 9.1
2007-02-19 08:56:01 51°13.069 2°50.717 244.9 15.1 241 9.1
2007-02-19 08:56:06 51°13.059 2°50.687 244.5 15.1 242 9.1
2007-02-19 08:56:11 51°13.049 2°50.658 244.5 15.1 241 9.1
2007-02-19 08:56:15 51°13.041 2°50.635 244.8 15.1 241 9.2
2007-02-19 08:56:21 51°13.029 2°50.599 244.7 15.1 242 9.1
2007-02-19 08:56:26 51°13.019 2°50.57 245.3 15.1 241 9.2
2007-02-19 08:56:31 51°13.009 2°50.54 245 15.2 242 9.2
2007-02-19 08:56:36 51°12.999 2°50.511 245.3 15.1 242 9.2
2007-02-19 08:56:41 51°12.99 2°50.481 245.7 15.1 242 9.2
2007-02-19 08:56:46 51°12.98 2°50.452 246 15.2 242 9.3
2007-02-19 08:56:51 51°12.97 2°50.422 246 15.2 242 9.2
2007-02-19 08:56:56 51°12.96 2°50.392 246.1 15.2 242 9.3
2007-02-19 08:57:01 51°12.951 2°50.362 246 15.2 243 9.3
2007-02-19 08:57:06 51°12.941 2°50.332 246.1 15.2 243 9.3
2007-02-19 08:57:11 51°12.931 2°50.303 246.2 15.2 243 9.3
2007-02-19 08:57:16 51°12.921 2°50.273 246.3 15.2 243 9.3
2007-02-19 08:57:21 51°12.912 2°50.243 246.2 15.2 243 9.4
2007-02-19 08:57:26 51°12.902 2°50.213 246.1 15.2 242 9.4
2007-02-19 08:57:31 51°12.892 2°50.183 246 15.2 243 9.4
2007-02-19 08:57:36 51°12.882 2°50.154 246 15.2 242 9.4
2007-02-19 08:57:41 51°12.873 2°50.124 245.5 15.2 242 9.4
2007-02-19 08:57:46 51°12.862 2°50.095 245.6 15.2 241 9.4
2007-02-19 08:57:51 51°12.853 2°50.065 245.3 15.2 242 9.4
2007-02-19 08:57:56 51°12.842 2°50.036 245 15.2 241 9.4
2007-02-19 08:58:01 51°12.832 2°50.006 244.8 15.2 241 9.4
2007-02-19 08:58:06 51°12.822 2°49.977 244.6 15.3 241 9.5
2007-02-19 08:58:11 51°12.812 2°49.947 244.5 15.3 241 9.5
2007-02-19 08:58:16 51°12.802 2°49.918 244.9 15.2 241 9.5
2007-02-19 08:58:21 51°12.792 2°49.888 245 15.3 242 9.5
2007-02-19 08:58:25 51°12.784 2°49.864 245.8 15.2 242 9.5
2007-02-19 08:58:31 51°12.772 2°49.829 245.9 15.3 243 9.5
2007-02-19 08:58:35 51°12.765 2°49.804 246 15.3 243 9.6
2007-02-19 08:58:41 51°12.753 2°49.769 246.5 15.3 242 9.6
2007-02-19 08:58:46 51°12.743 2°49.739 246.2 15.3 243 9.6
2007-02-19 08:58:51 51°12.733 2°49.709 246.2 15.3 242 9.6
2007-02-19 08:58:56 51°12.724 2°49.679 246.2 15.3 243 9.6
2007-02-19 08:59:01 51°12.714 2°49.649 245.8 15.3 242 9.7
2007-02-19 08:59:06 51°12.704 2°49.619 245.3 15.3 242 9.7
2007-02-19 08:59:11 51°12.693 2°49.59 245 15.3 241 9.7
2007-02-19 08:59:16 51°12.683 2°49.56 244.7 15.3 241 9.6
2007-02-19 08:59:21 51°12.673 2°49.53 244.7 15.3 242 9.7
2007-02-19 08:59:26 51°12.663 2°49.5 245 15.4 242 9.8
2007-02-19 08:59:31 51°12.653 2°49.47 245.4 15.3 242 9.8
2007-02-19 08:59:36 51°12.643 2°49.44 245.4 15.4 242 9.8
2007-02-19 08:59:41 51°12.633 2°49.41 245.5 15.4 242 9.8
2007-02-19 08:59:46 51°12.624 2°49.38 245.8 15.3 242 9.8
2007-02-19 08:59:51 51°12.614 2°49.35 245.8 15.4 242 9.8
2007-02-19 08:59:56 51°12.603 2°49.32 245.7 15.4 242 9.9
2007-02-19 09:00:01 51°12.593 2°49.29 245.8 15.4 242 9.9
2007-02-19 09:00:06 51°12.583 2°49.26 245.5 15.4 242 9.9
2007-02-19 09:00:11 51°12.573 2°49.231 245.3 15.4 241 9.9
2007-02-19 09:00:16 51°12.563 2°49.201 245 15.4 242 9.9
2007-02-19 09:00:21 51°12.553 2°49.171 245 15.4 242 9.9
2007-02-19 09:00:26 51°12.543 2°49.141 245.3 15.4 242 9.9
2007-02-19 09:00:31 51°12.533 2°49.111 245.6 15.4 242 9.9
2007-02-19 09:00:36 51°12.523 2°49.081 246 15.4 242 9.9
2007-02-19 09:00:41 51°12.513 2°49.05 246 15.4 242 9.9
2007-02-19 09:00:46 51°12.503 2°49.02 246 15.4 242 10
2007-02-19 09:00:51 51°12.493 2°48.99 245.8 15.4 242 9.9
2007-02-19 09:00:55 51°12.485 2°48.966 245.7 15.3 242 9.9
2007-02-19 09:01:01 51°12.473 2°48.93 245.3 15.4 241 9.9
2007-02-19 09:01:06 51°12.463 2°48.901 245.1 15.4 242 9.9
2007-02-19 09:01:11 51°12.453 2°48.871 245.2 15.4 241 9.9
2007-02-19 09:01:16 51°12.442 2°48.841 244.8 15.3 242 9.9
2007-02-19 09:01:21 51°12.432 2°48.811 245 15.3 241 10
2007-02-19 09:01:26 51°12.422 2°48.781 245.2 15.3 242 9.9
2007-02-19 09:01:31 51°12.412 2°48.752 245.3 15.3 242 9.9
2007-02-19 09:01:36 51°12.402 2°48.722 245.3 15.3 241 10
2007-02-19 09:01:41 51°12.392 2°48.692 245.2 15.3 242 10
2007-02-19 09:01:46 51°12.382 2°48.663 245.1 15.3 241 10
2007-02-19 09:01:51 51°12.372 2°48.633 245.2 15.3 242 10
2007-02-19 09:01:56 51°12.362 2°48.603 245.2 15.3 242 10
2007-02-19 09:02:01 51°12.352 2°48.573 245.4 15.3 242 10
2007-02-19 09:02:06 51°12.342 2°48.544 245.4 15.3 242 10
2007-02-19 09:02:11 51°12.332 2°48.514 245.4 15.3 242 10.1
2007-02-19 09:02:16 51°12.322 2°48.484 245.4 15.3 241 10.1
2007-02-19 09:02:21 51°12.312 2°48.455 245.2 15.3 242 10.1
2007-02-19 09:02:26 51°12.301 2°48.425 245.2 15.3 241 10.1
2007-02-19 09:02:31 51°12.291 2°48.396 245.1 15.3 241 10.1
2007-02-19 09:02:36 51°12.281 2°48.366 245 15.3 241 10.1
2007-02-19 09:02:41 51°12.27 2°48.336 244.6 15.3 241 10.1
2007-02-19 09:02:46 51°12.26 2°48.306 244.8 15.3 242 10.1
2007-02-19 09:02:51 51°12.25 2°48.277 245.1 15.3 242 10.1
2007-02-19 09:02:55 51°12.242 2°48.253 245.2 15.4 242 10.1
2007-02-19 09:03:01 51°12.23 2°48.217 245.3 15.3 242 10.1
2007-02-19 09:03:06 51°12.22 2°48.187 245.7 15.3 242 10.1
2007-02-19 09:03:11 51°12.21 2°48.158 245.7 15.3 242 10.1
2007-02-19 09:03:15 51°12.202 2°48.134 245.3 15.4 242 10.2
2007-02-19 09:03:21 51°12.191 2°48.098 245.6 15.3 243 10.2
2007-02-19 09:03:26 51°12.181 2°48.067 246.2 15.3 243 10.2
2007-02-19 09:03:31 51°12.172 2°48.036 247.3 15.3 245 10.2
2007-02-19 09:03:36 51°12.162 2°48.006 247.9 15.3 244 10.2
2007-02-19 09:03:41 51°12.153 2°47.976 248.3 15.3 245 10.3
2007-02-19 09:03:46 51°12.144 2°47.945 248.6 15.3 245 10.3
2007-02-19 09:03:51 51°12.135 2°47.914 248.9 15.3 245 10.2
2007-02-19 09:03:56 51°12.126 2°47.884 248.9 15.3 245 10.3
2007-02-19 09:04:01 51°12.117 2°47.853 248.9 15.3 245 10.3
2007-02-19 09:04:06 51°12.108 2°47.823 249 15.3 245 10.3
2007-02-19 09:04:11 51°12.099 2°47.792 248.6 15.3 245 10.3
2007-02-19 09:04:16 51°12.09 2°47.762 248.9 15.3 245 10.3
2007-02-19 09:04:21 51°12.081 2°47.731 248.8 15.3 245 10.3
2007-02-19 09:04:26 51°12.072 2°47.7 248.8 15.3 244 10.3
2007-02-19 09:04:31 51°12.063 2°47.67 248.6 15.3 245 10.3
2007-02-19 09:04:36 51°12.054 2°47.64 248.4 15.3 245 10.3
2007-02-19 09:04:41 51°12.045 2°47.609 248.4 15.3 245 10.4
2007-02-19 09:04:46 51°12.036 2°47.579 248.3 15.3 245 10.3
2007-02-19 09:04:51 51°12.027 2°47.548 248.6 15.3 245 10.3
2007-02-19 09:04:56 51°12.017 2°47.518 248.5 15.3 245 10.4
2007-02-19 09:05:01 51°12.008 2°47.487 248.3 15.3 245 10.4
2007-02-19 09:05:06 51°12 2°47.457 248.5 15.3 245 10.4
2007-02-19 09:05:11 51°11.991 2°47.426 248.8 15.2 245 10.4
2007-02-19 09:05:15 51°11.983 2°47.402 248.8 15.3 245 10.4
2007-02-19 09:05:21 51°11.973 2°47.365 248.8 15.3 245 10.5
2007-02-19 09:05:26 51°11.964 2°47.334 248.9 15.3 245 10.4
2007-02-19 09:05:31 51°11.955 2°47.304 248.7 15.3 245 10.4
2007-02-19 09:05:36 51°11.945 2°47.274 248.5 15.3 244 10.4
2007-02-19 09:05:41 51°11.936 2°47.243 248.2 15.2 245 10.4
2007-02-19 09:05:46 51°11.927 2°47.213 248.4 15.2 244 10.4
2007-02-19 09:05:51 51°11.918 2°47.182 248.3 15.3 246 10.5
2007-02-19 09:05:56 51°11.909 2°47.151 248.8 15.3 245 10.4
2007-02-19 09:06:01 51°11.9 2°47.121 248.8 15.3 245 10.5
2007-02-19 09:06:06 51°11.891 2°47.091 248.5 15.2 245 10.5
2007-02-19 09:06:11 51°11.882 2°47.06 248.6 15.3 246 10.4
2007-02-19 09:06:16 51°11.873 2°47.03 248.9 15.3 245 10.5
2007-02-19 09:06:21 51°11.864 2°46.999 248.8 15.3 245 10.5
2007-02-19 09:06:26 51°11.855 2°46.968 248.6 15.3 245 10.5
2007-02-19 09:06:31 51°11.846 2°46.938 248.4 15.3 245 10.5
2007-02-19 09:06:36 51°11.837 2°46.908 248.4 15.3 245 10.5
2007-02-19 09:06:41 51°11.828 2°46.877 248.5 15.3 245 10.5
2007-02-19 09:06:46 51°11.819 2°46.846 248.5 15.3 245 10.6
2007-02-19 09:06:51 51°11.81 2°46.816 248.6 15.3 245 10.6
2007-02-19 09:06:56 51°11.801 2°46.785 248.6 15.3 245 10.6
2007-02-19 09:07:01 51°11.792 2°46.755 248.5 15.3 245 10.6
2007-02-19 09:07:05 51°11.785 2°46.731 248.3 15.3 244 10.6
2007-02-19 09:07:11 51°11.774 2°46.694 248.3 15.3 244 10.6
2007-02-19 09:07:16 51°11.765 2°46.664 248.2 15.3 244 10.6
2007-02-19 09:07:21 51°11.756 2°46.633 247.7 15.3 245 10.6
2007-02-19 09:07:26 51°11.747 2°46.602 248.2 15.3 245 10.6
2007-02-19 09:07:31 51°11.738 2°46.572 248.4 15.3 245 10.6
2007-02-19 09:07:36 51°11.729 2°46.541 248.2 15.3 245 10.6
2007-02-19 09:07:41 51°11.719 2°46.511 248.3 15.3 245 10.6
2007-02-19 09:07:46 51°11.71 2°46.48 248.2 15.4 245 10.6
2007-02-19 09:07:51 51°11.701 2°46.449 248.4 15.3 245 10.7
2007-02-19 09:07:56 51°11.693 2°46.419 248.9 15.3 245 10.6
2007-02-19 09:08:01 51°11.683 2°46.388 248.6 15.3 245 10.6
2007-02-19 09:08:06 51°11.675 2°46.358 248.4 15.3 245 10.7
2007-02-19 09:08:11 51°11.666 2°46.327 248.3 15.3 245 10.6
2007-02-19 09:08:16 51°11.657 2°46.297 248.4 15.2 245 10.7
2007-02-19 09:08:21 51°11.648 2°46.266 248.6 15.3 245 10.6
2007-02-19 09:08:26 51°11.639 2°46.236 248.5 15.3 245 10.6
2007-02-19 09:08:31 51°11.63 2°46.205 248.8 15.2 245 10.6
2007-02-19 09:08:36 51°11.621 2°46.175 248.6 15.2 245 10.6
2007-02-19 09:08:41 51°11.612 2°46.144 248.3 15.2 245 10.6
2007-02-19 09:08:46 51°11.603 2°46.113 248.2 15.3 245 10.6
2007-02-19 09:08:51 51°11.594 2°46.083 248.3 15.2 245 10.5
2007-02-19 09:08:56 51°11.585 2°46.053 248.3 15.2 245 10.5
2007-02-19 09:09:01 51°11.576 2°46.022 248 15.3 245 10.5
2007-02-19 09:09:06 51°11.568 2°45.991 248.8 15.2 247 10.5
2007-02-19 09:09:11 51°11.559 2°45.96 249.6 15.2 246 10.4
2007-02-19 09:09:16 51°11.551 2°45.93 250.3 15.2 247 10.5
2007-02-19 09:09:21 51°11.543 2°45.898 251.1 15.2 248 10.5
2007-02-19 09:09:26 51°11.535 2°45.867 251.6 15.2 248 10.5
2007-02-19 09:09:31 51°11.527 2°45.836 251.8 15.3 248 10.5
2007-02-19 09:09:36 51°11.519 2°45.805 251.9 15.2 248 10.5
2007-02-19 09:09:41 51°11.511 2°45.774 252.1 15.2 248 10.5
2007-02-19 09:09:46 51°11.503 2°45.743 251.9 15.2 248 10.5
2007-02-19 09:09:51 51°11.495 2°45.711 251.7 15.2 247 10.5
2007-02-19 09:09:55 51°11.489 2°45.687 251.4 15.2 247 10.5
2007-02-19 09:10:01 51°11.479 2°45.649 251.1 15.2 248 10.5
2007-02-19 09:10:06 51°11.471 2°45.618 251.6 15.1 248 10.5
2007-02-19 09:10:11 51°11.463 2°45.587 251.8 15.2 248 10.5
2007-02-19 09:10:16 51°11.455 2°45.556 251.8 15.2 248 10.5
2007-02-19 09:10:21 51°11.447 2°45.525 251.9 15.1 248 10.5
2007-02-19 09:10:26 51°11.439 2°45.494 251.6 15.2 248 10.5
2007-02-19 09:10:31 51°11.431 2°45.463 251.5 15.2 247 10.5
2007-02-19 09:10:36 51°11.423 2°45.432 251.3 15.2 248 10.5
2007-02-19 09:10:41 51°11.415 2°45.402 251.4 15.1 247 10.5
2007-02-19 09:10:46 51°11.407 2°45.37 251.3 15.2 248 10.5
2007-02-19 09:10:51 51°11.4 2°45.339 251.9 15.1 248 10.5
2007-02-19 09:10:56 51°11.391 2°45.308 252 15.1 248 10.5
2007-02-19 09:11:01 51°11.384 2°45.277 251.5 15.1 248 10.4
2007-02-19 09:11:06 51°11.376 2°45.247 251.6 15.1 248 10.5
2007-02-19 09:11:11 51°11.367 2°45.216 251.2 15.1 247 10.4
2007-02-19 09:11:16 51°11.359 2°45.185 251.1 15.2 248 10.4
2007-02-19 09:11:21 51°11.351 2°45.154 251.1 15.1 247 10.4
2007-02-19 09:11:26 51°11.343 2°45.123 250.9 15.2 247 10.4
2007-02-19 09:11:31 51°11.335 2°45.092 251.1 15.2 248 10.5
2007-02-19 09:11:36 51°11.327 2°45.061 251.4 15.2 248 10.5
2007-02-19 09:11:41 51°11.319 2°45.03 251.4 15.2 248 10.4
2007-02-19 09:11:46 51°11.311 2°45 251.4 15.2 248 10.4
2007-02-19 09:11:51 51°11.303 2°44.969 251.3 15.1 248 10.4
2007-02-19 09:11:56 51°11.295 2°44.938 251.3 15.1 247 10.4
2007-02-19 09:12:01 51°11.287 2°44.907 251.2 15.1 248 10.4
2007-02-19 09:12:06 51°11.28 2°44.876 251.7 15.1 249 10.4
2007-02-19 09:12:11 51°11.272 2°44.844 252.7 15.2 249 10.3
2007-02-19 09:12:15 51°11.266 2°44.819 253.1 15.1 250 10.4
2007-02-19 09:12:21 51°11.257 2°44.782 253.4 15.1 249 10.4
2007-02-19 09:12:26 51°11.25 2°44.75 253.4 15.1 250 10.4
2007-02-19 09:12:31 51°11.243 2°44.719 253.5 15.1 249 10.3
2007-02-19 09:12:36 51°11.235 2°44.688 253.5 15.1 250 10.4
2007-02-19 09:12:41 51°11.228 2°44.657 253.2 15.2 249 10.4
2007-02-19 09:12:46 51°11.22 2°44.625 253.2 15.2 250 10.3
2007-02-19 09:12:51 51°11.213 2°44.594 253.5 15.2 250 10.4
2007-02-19 09:12:56 51°11.206 2°44.563 253.8 15.1 250 10.4
2007-02-19 09:13:01 51°11.199 2°44.531 254 15.1 251 10.3
2007-02-19 09:13:06 51°11.192 2°44.5 254.5 15.1 251 10.3
2007-02-19 09:13:11 51°11.186 2°44.468 255.4 15.1 252 10.3
2007-02-19 09:13:16 51°11.179 2°44.436 255.9 15.1 252 10.3
2007-02-19 09:13:21 51°11.172 2°44.405 255.8 15.1 252 10.3
2007-02-19 09:13:26 51°11.166 2°44.373 255.8 15.1 252 10.2
2007-02-19 09:13:31 51°11.16 2°44.342 255.9 15.1 252 10.3
2007-02-19 09:13:36 51°11.153 2°44.31 256.1 15.1 251 10.3
2007-02-19 09:13:41 51°11.146 2°44.278 255.4 15.1 251 10.3
2007-02-19 09:13:46 51°11.139 2°44.247 255.4 15.1 251 10.3
2007-02-19 09:13:51 51°11.132 2°44.215 255.2 15.1 251 10.4
2007-02-19 09:13:56 51°11.126 2°44.184 255.4 15.1 251 10.3
2007-02-19 09:14:01 51°11.119 2°44.152 255.6 15.1 251 10.4
2007-02-19 09:14:06 51°11.112 2°44.12 255.4 15.1 251 10.4
2007-02-19 09:14:11 51°11.106 2°44.089 255.4 15.2 251 10.4
2007-02-19 09:14:16 51°11.099 2°44.057 255.4 15.1 251 10.4
2007-02-19 09:14:21 51°11.092 2°44.025 255.5 15.1 252 10.4
2007-02-19 09:14:26 51°11.085 2°43.994 255.6 15.1 252 10.4
2007-02-19 09:14:31 51°11.079 2°43.962 255.8 15.1 252 10.4
2007-02-19 09:14:36 51°11.072 2°43.93 256.1 15.1 252 10.4
2007-02-19 09:14:41 51°11.066 2°43.899 255.7 15.1 252 10.4
2007-02-19 09:14:46 51°11.059 2°43.867 255.6 15.1 252 10.4
2007-02-19 09:14:51 51°11.052 2°43.835 255.9 15.1 252 10.4
2007-02-19 09:14:56 51°11.046 2°43.804 255.9 15.1 252 10.4
2007-02-19 09:15:01 51°11.039 2°43.772 256.2 15.1 252 10.4
2007-02-19 09:15:06 51°11.033 2°43.74 256.3 15.1 252 10.4
2007-02-19 09:15:11 51°11.026 2°43.709 256 15.1 252 10.4
2007-02-19 09:15:16 51°11.02 2°43.677 256 15.1 252 10.4
2007-02-19 09:15:21 51°11.013 2°43.645 255.9 15.1 252 10.4
2007-02-19 09:15:26 51°11.007 2°43.614 256.2 15.1 253 10.4
2007-02-19 09:15:31 51°11 2°43.582 256.5 15.1 252 10.4
2007-02-19 09:15:36 51°10.994 2°43.55 256.6 15.1 252 10.4
2007-02-19 09:15:41 51°10.987 2°43.518 256.1 15.1 252 10.5
2007-02-19 09:15:46 51°10.981 2°43.487 256.2 15.1 252 10.5
2007-02-19 09:15:51 51°10.975 2°43.455 256.2 15.1 252 10.5
2007-02-19 09:15:56 51°10.968 2°43.423 256.3 15.1 252 10.5
2007-02-19 09:16:01 51°10.962 2°43.392 256.1 15.1 252 10.5
2007-02-19 09:16:06 51°10.955 2°43.36 256.1 15.1 252 10.5
2007-02-19 09:16:11 51°10.949 2°43.328 256.2 15.1 253 10.5
2007-02-19 09:16:16 51°10.943 2°43.296 256.5 15.1 252 10.4
2007-02-19 09:16:21 51°10.936 2°43.265 256.6 15.1 252 10.5
2007-02-19 09:16:26 51°10.93 2°43.233 256.5 15.1 252 10.5
2007-02-19 09:16:31 51°10.923 2°43.201 256.4 15.1 252 10.6
2007-02-19 09:16:36 51°10.917 2°43.169 256.3 15.1 252 10.5
2007-02-19 09:16:41 51°10.911 2°43.138 256.4 15.1 252 10.5
2007-02-19 09:16:45 51°10.905 2°43.112 256.4 15.1 252 10.5
2007-02-19 09:16:51 51°10.898 2°43.074 256.4 15.1 252 10.5
2007-02-19 09:16:56 51°10.891 2°43.043 256.5 15.1 252 10.5
2007-02-19 09:17:01 51°10.885 2°43.011 256.3 15.1 252 10.5
2007-02-19 09:17:05 51°10.88 2°42.986 256.4 15 252 10.5
2007-02-19 09:17:11 51°10.872 2°42.948 256.2 15 252 10.5
2007-02-19 09:17:16 51°10.865 2°42.916 256.2 15.1 252 10.5
2007-02-19 09:17:21 51°10.859 2°42.884 256.1 15.1 252 10.5
2007-02-19 09:17:26 51°10.853 2°42.853 256.1 15.1 252 10.5
2007-02-19 09:17:31 51°10.846 2°42.821 256.1 15.1 252 10.5
2007-02-19 09:17:36 51°10.839 2°42.789 256 15.1 252 10.5
2007-02-19 09:17:41 51°10.833 2°42.758 255.9 15.1 252 10.6
2007-02-19 09:17:46 51°10.827 2°42.726 256.1 15.1 252 10.5
2007-02-19 09:17:51 51°10.82 2°42.694 256.3 15.1 252 10.5
2007-02-19 09:17:56 51°10.814 2°42.662 256.3 15.1 252 10.5
2007-02-19 09:18:01 51°10.808 2°42.631 256.2 15.1 252 10.6
2007-02-19 09:18:06 51°10.801 2°42.599 256.4 15.1 252 10.6
2007-02-19 09:18:11 51°10.795 2°42.567 256.4 15.1 253 10.6
2007-02-19 09:18:16 51°10.789 2°42.535 256.4 15.1 252 10.6
2007-02-19 09:18:21 51°10.782 2°42.504 256.4 15.1 252 10.5
2007-02-19 09:18:26 51°10.776 2°42.472 256.4 15.1 252 10.6
2007-02-19 09:18:31 51°10.77 2°42.44 256.4 15.1 252 10.6
2007-02-19 09:18:36 51°10.763 2°42.408 256.4 15 252 10.6
2007-02-19 09:18:41 51°10.757 2°42.377 256.3 15.1 252 10.6
2007-02-19 09:18:46 51°10.75 2°42.345 256.1 15.1 252 10.6
2007-02-19 09:18:51 51°10.744 2°42.314 256.1 15.1 252 10.6
2007-02-19 09:18:56 51°10.737 2°42.282 256.1 15.1 252 10.6
2007-02-19 09:19:01 51°10.731 2°42.25 256.1 15.1 252 10.6
2007-02-19 09:19:06 51°10.725 2°42.219 256.2 15.1 252 10.6
2007-02-19 09:19:11 51°10.718 2°42.187 256.2 15.1 253 10.6
2007-02-19 09:19:16 51°10.712 2°42.155 256.3 15.1 253 10.6
2007-02-19 09:19:21 51°10.706 2°42.123 256.7 15.1 252 10.6
2007-02-19 09:19:26 51°10.699 2°42.092 256.7 15.1 252 10.6
2007-02-19 09:19:31 51°10.693 2°42.06 256.3 15.1 252 10.7
2007-02-19 09:19:36 51°10.686 2°42.029 256.3 15 252 10.6
2007-02-19 09:19:41 51°10.68 2°41.997 256.1 15.1 252 10.7
2007-02-19 09:19:46 51°10.673 2°41.966 255.9 15 252 10.7
2007-02-19 09:19:51 51°10.667 2°41.936 256.1 14.3 252 10.7
2007-02-19 09:19:56 51°10.661 2°41.907 256.2 13.7 253 10.7
2007-02-19 09:20:01 51°10.656 2°41.879 256.2 13.1 254 10.7
2007-02-19 09:20:05 51°10.654 2°41.857 259.6 12.2 262 10.7
2007-02-19 09:20:11 51°10.654 2°41.827 267.4 11.2 270 10.8
2007-02-19 09:20:16 51°10.656 2°41.805 276.1 10.4 277 10.9
2007-02-19 09:20:21 51°10.659 2°41.784 284.5 9.7 284 11
2007-02-19 09:20:25 51°10.662 2°41.769 293.1 8.9 289 11.1
2007-02-19 09:20:31 51°10.668 2°41.748 299.7 8.2 293 11.1
2007-02-19 09:20:36 51°10.673 2°41.734 305.7 7.6 298 11.2
2007-02-19 09:20:41 51°10.678 2°41.721 311.3 7 303 11.3
2007-02-19 09:20:46 51°10.683 2°41.709 317.7 6.5 307 11.3
2007-02-19 09:20:51 51°10.689 2°41.7 323 6 312 11.4
2007-02-19 09:20:56 51°10.695 2°41.691 328.7 5.6 316 11.4
2007-02-19 09:21:01 51°10.7 2°41.684 335.3 5.2 320 11.5
2007-02-19 09:21:06 51°10.706 2°41.677 339.6 4.9 324 11.5
2007-02-19 09:21:11 51°10.711 2°41.672 344.7 4.6 328 11.5
2007-02-19 09:21:16 51°10.716 2°41.667 349.5 4.4 332 11.5
2007-02-19 09:21:21 51°10.722 2°41.664 354.3 4.2 334 11.5
2007-02-19 09:21:26 51°10.727 2°41.66 357.2 4 338 11.5
2007-02-19 09:21:31 51°10.732 2°41.657 0.7 3.9 341 11.5
2007-02-19 09:21:36 51°10.737 2°41.655 4 3.8 344 11.6
2007-02-19 09:21:41 51°10.742 2°41.653 7.5 3.7 347 11.6
2007-02-19 09:21:46 51°10.747 2°41.652 10 3.5 349 11.6
2007-02-19 09:21:51 51°10.752 2°41.651 13 3.4 353 11.6
2007-02-19 09:21:56 51°10.756 2°41.65 15.9 3.3 356 11.7
2007-02-19 09:22:01 51°10.761 2°41.65 18.9 3.3 -999 11.6
2007-02-19 09:22:06 51°10.766 2°41.651 22 3.7 5 11.6
2007-02-19 09:22:11 51°10.771 2°41.653 25.4 4.1 13 11.6
2007-02-19 09:22:16 51°10.777 2°41.656 29.6 4.4 17 11.5
2007-02-19 09:22:21 51°10.784 2°41.66 32 4.8 21 11.5
2007-02-19 09:22:26 51°10.79 2°41.665 34.8 5 26 11.6
2007-02-19 09:22:31 51°10.796 2°41.671 39.4 5.2 36 11.6
2007-02-19 09:22:36 51°10.802 2°41.679 44.8 5.5 39 11.6
2007-02-19 09:22:41 51°10.807 2°41.688 49.3 5.7 45 11.7
2007-02-19 09:22:46 51°10.813 2°41.697 52.7 5.9 46 11.7
2007-02-19 09:22:51 51°10.819 2°41.707 53.7 6.1 46 11.7
2007-02-19 09:22:56 51°10.825 2°41.717 53.3 6.3 44 11.8
2007-02-19 09:23:01 51°10.832 2°41.726 51.3 6.4 40 11.7
2007-02-19 09:23:06 51°10.839 2°41.734 48.6 6.4 37 11.7
2007-02-19 09:23:11 51°10.847 2°41.741 43.2 6.2 27 11.7
2007-02-19 09:23:16 51°10.854 2°41.745 36.4 5.9 22 11.6
2007-02-19 09:23:21 51°10.862 2°41.749 30.8 5.8 18 11.7
2007-02-19 09:23:26 51°10.869 2°41.753 28.3 5.6 16 11.6
2007-02-19 09:23:31 51°10.877 2°41.756 26.7 5.5 16 11.6
2007-02-19 09:23:36 51°10.884 2°41.76 26.5 5.4 17 11.7
2007-02-19 09:23:41 51°10.891 2°41.764 28.8 5.2 21 11.7
2007-02-19 09:23:45 51°10.896 2°41.767 31.4 5 24 11.6
2007-02-19 09:23:51 51°10.903 2°41.774 35.5 4.8 30 11.6
2007-02-19 09:23:56 51°10.908 2°41.78 39.6 4.7 34 11.6
2007-02-19 09:24:01 51°10.913 2°41.786 43.9 4.5 40 11.6
2007-02-19 09:24:06 51°10.917 2°41.793 48.3 4.4 44 11.6
2007-02-19 09:24:11 51°10.921 2°41.8 52.6 4.3 48 11.6
2007-02-19 09:24:16 51°10.925 2°41.807 55.8 4.2 50 11.6
2007-02-19 09:24:21 51°10.929 2°41.814 57.4 4.2 51 11.7
2007-02-19 09:24:26 51°10.932 2°41.821 57.7 4.1 50 11.6
2007-02-19 09:24:31 51°10.936 2°41.828 56.7 4.1 49 11.6
2007-02-19 09:24:36 51°10.94 2°41.834 54.9 4.1 45 11.6
2007-02-19 09:24:41 51°10.944 2°41.84 52.2 4.1 42 11.6
2007-02-19 09:24:45 51°10.948 2°41.845 48.6 4 38 11.6
2007-02-19 09:24:51 51°10.953 2°41.851 45.3 4 35 11.6
2007-02-19 09:24:56 51°10.958 2°41.856 42.5 4.1 33 11.6
2007-02-19 09:25:01 51°10.963 2°41.861 40.9 4.1 32 11.6
2007-02-19 09:25:05 51°10.967 2°41.864 40.2 4.1 31 11.6
2007-02-19 09:25:11 51°10.973 2°41.87 39.8 4.1 32 11.6
2007-02-19 09:25:16 51°10.978 2°41.874 39.7 4.1 31 11.6
2007-02-19 09:25:21 51°10.983 2°41.879 40 4.1 32 11.6
2007-02-19 09:25:26 51°10.987 2°41.884 41.1 4.2 33 11.5
2007-02-19 09:25:31 51°10.992 2°41.89 42.7 4.1 36 11.5
2007-02-19 09:25:36 51°10.996 2°41.895 45 4.1 38 11.5
2007-02-19 09:25:41 51°11.001 2°41.901 47.9 4 42 11.5
2007-02-19 09:25:46 51°11.004 2°41.907 50.8 4 45 11.5
2007-02-19 09:25:51 51°11.008 2°41.914 53.3 3.9 48 11.5
2007-02-19 09:25:56 51°11.012 2°41.92 55.2 3.9 48 11.5
2007-02-19 09:26:01 51°11.015 2°41.927 56.2 3.9 49 11.5
2007-02-19 09:26:06 51°11.019 2°41.933 56.6 3.9 49 11.5
2007-02-19 09:26:11 51°11.022 2°41.94 56.6 3.9 49 11.5
2007-02-19 09:26:16 51°11.026 2°41.946 56.1 4 47 11.5
2007-02-19 09:26:21 51°11.03 2°41.953 55.4 4 47 11.5
2007-02-19 09:26:26 51°11.034 2°41.959 54.1 4 44 11.5
2007-02-19 09:26:31 51°11.038 2°41.965 52.4 4 44 11.5
2007-02-19 09:26:36 51°11.042 2°41.971 50.9 4 42 11.5
2007-02-19 09:26:41 51°11.046 2°41.977 49.9 4 42 11.4
2007-02-19 09:26:46 51°11.051 2°41.983 49.6 4 42 11.4
2007-02-19 09:26:51 51°11.055 2°41.989 50.1 4 43 11.4
2007-02-19 09:26:56 51°11.058 2°41.995 51.7 4 45 11.4
2007-02-19 09:27:01 51°11.062 2°42.002 53.6 4 47 11.4
2007-02-19 09:27:05 51°11.065 2°42.007 55.9 3.9 51 11.4
2007-02-19 09:27:11 51°11.069 2°42.015 57.9 3.8 50 11.4
2007-02-19 09:27:16 51°11.072 2°42.021 59.3 3.7 53 11.4
2007-02-19 09:27:21 51°11.075 2°42.027 60.3 3.6 52 11.4
2007-02-19 09:27:26 51°11.078 2°42.034 60.9 3.5 53 11.4
2007-02-19 09:27:31 51°11.081 2°42.039 60.5 3.4 51 11.4
2007-02-19 09:27:36 51°11.084 2°42.045 59.3 3.3 49 11.4
2007-02-19 09:27:41 51°11.087 2°42.05 57.3 3.1 46 11.4
2007-02-19 09:27:46 51°11.09 2°42.054 55 3.1 44 11.4
2007-02-19 09:27:51 51°11.093 2°42.059 52.2 3 39 11.3
2007-02-19 09:27:56 51°11.097 2°42.063 49.9 3 38 11.3
2007-02-19 09:28:01 51°11.1 2°42.066 48.1 2.9 34 11.4
2007-02-19 09:28:06 51°11.103 2°42.07 46.8 2.7 33 11.3
2007-02-19 09:28:11 51°11.106 2°42.072 45.5 2.5 29 11.3
2007-02-19 09:28:16 51°11.109 2°42.075 43.9 2.2 24 11.3
2007-02-19 09:28:21 51°11.111 2°42.075 41.6 1.7 14 11.3
2007-02-19 09:28:26 51°11.112 2°42.076 38.8 1.1 3 11.3
2007-02-19 09:28:31 51°11.113 2°42.075 34.8 0.7 327 11.3
2007-02-19 09:28:36 51°11.113 2°42.073 30.8 0.6 291 11.3
2007-02-19 09:28:41 51°11.114 2°42.072 27.5 0.7 289 11.3
2007-02-19 09:28:46 51°11.114 2°42.071 25.5 0.6 287 11.3
2007-02-19 09:28:51 51°11.114 2°42.069 24.3 0.7 286 11.3
2007-02-19 09:28:56 51°11.115 2°42.068 23.6 0.7 284 11.3
2007-02-19 09:29:01 51°11.115 2°42.066 23.1 0.7 286 11.3
2007-02-19 09:29:06 51°11.115 2°42.065 22.5 0.7 285 11.3
2007-02-19 09:29:11 51°11.115 2°42.063 21.8 0.7 286 11.3
2007-02-19 09:29:16 51°11.115 2°42.062 21.3 0.8 283 11.3
2007-02-19 09:29:21 51°11.115 2°42.06 20.6 0.8 281 11.3
2007-02-19 09:29:25 51°11.115 2°42.059 19.9 0.8 281 11.3
2007-02-19 09:29:31 51°11.116 2°42.057 19.3 0.8 282 11.3
2007-02-19 09:29:36 51°11.116 2°42.055 18.6 0.9 281 11.3
2007-02-19 09:29:41 51°11.116 2°42.053 17.9 0.9 281 11.3
2007-02-19 09:29:46 51°11.117 2°42.051 17.4 0.9 282 11.3
2007-02-19 09:29:51 51°11.117 2°42.049 16.9 0.9 283 11.3
2007-02-19 09:29:56 51°11.117 2°42.047 16.5 0.9 282 11.3
2007-02-19 09:30:01 51°11.117 2°42.045 16.1 0.9 284 11.3
2007-02-19 09:30:06 51°11.118 2°42.043 15.9 0.9 283 11.3
2007-02-19 09:30:11 51°11.118 2°42.041 15.6 0.9 281 11.3
2007-02-19 09:30:15 51°11.118 2°42.039 15.3 0.9 283 11.3
2007-02-19 09:30:21 51°11.118 2°42.037 15.2 0.9 283 11.3
2007-02-19 09:30:26 51°11.119 2°42.035 15 0.9 283 11.3
2007-02-19 09:30:31 51°11.119 2°42.033 14.9 0.9 284 11.3
2007-02-19 09:30:36 51°11.119 2°42.031 14.9 1 283 11.3
2007-02-19 09:30:41 51°11.12 2°42.029 15 0.9 284 11.3
2007-02-19 09:30:46 51°11.12 2°42.027 15.2 1 284 11.3
2007-02-19 09:30:51 51°11.12 2°42.025 15.5 1 284 11.3
2007-02-19 09:30:56 51°11.121 2°42.023 15.9 1 286 11.3
2007-02-19 09:31:01 51°11.121 2°42.021 16.3 1 285 11.3
2007-02-19 09:31:06 51°11.121 2°42.019 16.8 1 284 11.3
2007-02-19 09:31:11 51°11.122 2°42.017 17.4 1 286 11.3
2007-02-19 09:31:16 51°11.122 2°42.015 18 1 285 11.3
2007-02-19 09:31:21 51°11.123 2°42.012 18.7 0.9 283 11.3
2007-02-19 09:31:26 51°11.123 2°42.01 19.4 1 285 11.3
2007-02-19 09:31:31 51°11.123 2°42.008 20 0.9 281 11.3
2007-02-19 09:31:36 51°11.123 2°42.006 20.7 1 282 11.3
2007-02-19 09:31:41 51°11.124 2°42.004 21.4 0.9 283 11.3
2007-02-19 09:31:45 51°11.124 2°42.003 22.1 0.9 280 11.3
2007-02-19 09:31:51 51°11.124 2°42 22.7 0.9 282 11.3
2007-02-19 09:31:56 51°11.124 2°41.998 23.3 0.9 281 11.2
2007-02-19 09:32:01 51°11.125 2°41.996 24 0.9 280 11.3
2007-02-19 09:32:05 51°11.125 2°41.995 24.6 0.9 280 11.2
2007-02-19 09:32:11 51°11.125 2°41.992 25.4 0.9 282 11.2
2007-02-19 09:32:16 51°11.125 2°41.99 26.1 0.9 280 11.2
2007-02-19 09:32:21 51°11.126 2°41.988 26.8 0.9 280 11.2
2007-02-19 09:32:26 51°11.126 2°41.987 27.5 0.9 280 11.2
2007-02-19 09:32:31 51°11.126 2°41.985 28.2 0.9 278 11.3
2007-02-19 09:32:36 51°11.126 2°41.983 28.9 0.9 278 11.3
2007-02-19 09:32:41 51°11.126 2°41.981 29.4 0.9 276 11.2
2007-02-19 09:32:46 51°11.126 2°41.979 30.1 0.9 276 11.2
2007-02-19 09:32:51 51°11.127 2°41.977 30.6 0.9 275 11.2
2007-02-19 09:32:56 51°11.127 2°41.976 31.2 0.9 273 11.2
2007-02-19 09:33:01 51°11.127 2°41.974 32 0.8 273 11.2
2007-02-19 09:33:06 51°11.127 2°41.972 32.6 0.8 273 11.2
2007-02-19 09:33:11 51°11.127 2°41.97 33.3 0.8 273 11.2
2007-02-19 09:33:16 51°11.127 2°41.968 34 0.8 272 11.2
2007-02-19 09:33:21 51°11.127 2°41.966 34.8 0.8 270 11.2
2007-02-19 09:33:26 51°11.127 2°41.964 35.5 0.8 270 11.3
2007-02-19 09:33:31 51°11.127 2°41.962 36.2 0.8 270 11.2
2007-02-19 09:33:36 51°11.127 2°41.961 37 0.8 269 11.3
2007-02-19 09:33:41 51°11.127 2°41.959 37.9 0.8 269 11.3
2007-02-19 09:33:45 51°11.127 2°41.958 38.6 0.8 269 11.3
2007-02-19 09:33:51 51°11.127 2°41.956 39.7 0.8 266 11.3
2007-02-19 09:33:56 51°11.127 2°41.954 40.3 0.8 265 11.3
2007-02-19 09:34:01 51°11.127 2°41.952 41.3 0.8 268 11.3
2007-02-19 09:34:05 51°11.127 2°41.951 41.7 0.8 267 11.3
2007-02-19 09:34:11 51°11.127 2°41.949 42.7 0.8 264 11.3
2007-02-19 09:34:16 51°11.127 2°41.947 43.4 0.8 265 11.3
2007-02-19 09:34:21 51°11.127 2°41.945 44.1 0.8 265 11.2
2007-02-19 09:34:26 51°11.126 2°41.943 44.7 0.8 262 11.3
2007-02-19 09:34:31 51°11.126 2°41.942 45.4 0.8 263 11.3
2007-02-19 09:34:36 51°11.126 2°41.94 46.4 0.8 262 11.3
2007-02-19 09:34:41 51°11.126 2°41.939 47.1 0.8 258 11.4
2007-02-19 09:34:46 51°11.126 2°41.937 47.8 0.8 260 11.3
2007-02-19 09:34:51 51°11.125 2°41.935 48.7 0.8 260 11.3
2007-02-19 09:34:56 51°11.125 2°41.934 49.4 0.6 274 11.3
2007-02-19 09:35:01 51°11.126 2°41.933 50.4 0.5 306 11.3
2007-02-19 09:35:06 51°11.126 2°41.933 51.4 0.4 340 11.3
2007-02-19 09:35:11 51°11.127 2°41.933 51.3 0.6 359 11.3
2007-02-19 09:35:16 51°11.128 2°41.933 50 0.8 11 11.3
2007-02-19 09:35:21 51°11.13 2°41.934 46.7 1 13 11.3
2007-02-19 09:35:26 51°11.132 2°41.934 42.9 1.4 14 11.3
2007-02-19 09:35:31 51°11.134 2°41.936 38.4 2 15 11.3
2007-02-19 09:35:36 51°11.138 2°41.936 33.3 2.6 7 11.3
2007-02-19 09:35:41 51°11.142 2°41.936 25.9 3 1 11.3
2007-02-19 09:35:46 51°11.147 2°41.935 16.2 3.5 352 11.2
2007-02-19 09:35:51 51°11.152 2°41.933 7.7 3.9 345 11.2
2007-02-19 09:35:56 51°11.157 2°41.929 0.7 4.2 335 11.2
2007-02-19 09:36:01 51°11.163 2°41.924 351.8 4.6 327 11.1
2007-02-19 09:36:05 51°11.167 2°41.918 342.9 4.9 319 11.2
2007-02-19 09:36:11 51°11.172 2°41.908 332.4 5.2 311 11.2
2007-02-19 09:36:16 51°11.177 2°41.898 325.2 5.4 302 11.2
2007-02-19 09:36:21 51°11.18 2°41.886 314.2 5.6 294 11.2
2007-02-19 09:36:25 51°11.181 2°41.876 307 5.8 286 11.2
2007-02-19 09:36:31 51°11.183 2°41.86 297.9 6 278 11.2
2007-02-19 09:36:36 51°11.183 2°41.846 286.9 6.3 271 11.2
2007-02-19 09:36:41 51°11.182 2°41.832 279.8 6.7 265 11.2
2007-02-19 09:36:46 51°11.181 2°41.816 273.1 7 263 11.3
2007-02-19 09:36:51 51°11.179 2°41.8 269.1 7.5 261 11.2
2007-02-19 09:36:56 51°11.177 2°41.782 267 8.1 260 11.3
2007-02-19 09:37:01 51°11.175 2°41.764 266.4 8.5 259 11.2
2007-02-19 09:37:06 51°11.173 2°41.744 266.4 9 259 11.2
2007-02-19 09:37:11 51°11.169 2°41.724 264.1 9.4 256 11.2
2007-02-19 09:37:16 51°11.166 2°41.703 262 10.1 255 11.2
2007-02-19 09:37:21 51°11.161 2°41.68 259.9 10.7 253 11.1
2007-02-19 09:37:26 51°11.156 2°41.657 258.5 11.2 252 11.1
2007-02-19 09:37:31 51°11.151 2°41.632 256 11.8 250 11.1
2007-02-19 09:37:36 51°11.144 2°41.607 254.7 12.4 248 11.1
2007-02-19 09:37:41 51°11.137 2°41.58 253.2 12.9 248 11.1
2007-02-19 09:37:46 51°11.13 2°41.553 252.1 13.3 247 11.1
2007-02-19 09:37:51 51°11.122 2°41.526 251.3 13.6 245 11.1
2007-02-19 09:37:56 51°11.114 2°41.498 250 13.8 246 11.1
2007-02-19 09:38:01 51°11.106 2°41.47 249.6 14 245 11.2
2007-02-19 09:38:06 51°11.098 2°41.442 249.4 14.1 245 11.2
2007-02-19 09:38:11 51°11.089 2°41.413 249.4 14.3 245 11.2
2007-02-19 09:38:16 51°11.081 2°41.385 249.6 14.3 246 11.2
2007-02-19 09:38:21 51°11.073 2°41.356 249.5 14.4 245 11.3
2007-02-19 09:38:26 51°11.064 2°41.327 249.6 14.4 246 11.3
2007-02-19 09:38:31 51°11.056 2°41.298 249.7 14.5 246 11.3
2007-02-19 09:38:36 51°11.048 2°41.268 250.1 14.5 246 11.3
2007-02-19 09:38:41 51°11.039 2°41.239 250.2 14.6 245 11.4
2007-02-19 09:38:46 51°11.031 2°41.21 250.1 14.6 246 11.4
2007-02-19 09:38:51 51°11.023 2°41.181 250.1 14.6 245 11.4
2007-02-19 09:38:56 51°11.015 2°41.151 250.1 14.6 246 11.5
2007-02-19 09:39:01 51°11.006 2°41.122 250.4 14.6 246 11.5
2007-02-19 09:39:06 51°10.998 2°41.092 250.4 14.7 246 11.6
2007-02-19 09:39:11 51°10.99 2°41.063 250.5 14.6 246 11.6
2007-02-19 09:39:16 51°10.982 2°41.033 251 14.6 246 11.7
2007-02-19 09:39:21 51°10.973 2°41.004 250.6 14.6 246 11.7
2007-02-19 09:39:26 51°10.965 2°40.974 250.5 14.6 246 11.7
2007-02-19 09:39:31 51°10.957 2°40.945 250.5 14.7 246 11.8
2007-02-19 09:39:36 51°10.948 2°40.915 250.7 14.7 246 11.8
2007-02-19 09:39:41 51°10.941 2°40.885 250.9 14.7 247 11.8
2007-02-19 09:39:46 51°10.932 2°40.856 251 14.7 246 11.8
2007-02-19 09:39:51 51°10.924 2°40.826 250.8 14.7 247 11.9
2007-02-19 09:39:56 51°10.916 2°40.797 250.9 14.6 246 11.9
2007-02-19 09:40:01 51°10.908 2°40.767 250.7 14.7 247 11.9
2007-02-19 09:40:06 51°10.899 2°40.737 250.9 14.7 246 12
2007-02-19 09:40:11 51°10.891 2°40.707 250.8 14.7 247 12
2007-02-19 09:40:16 51°10.884 2°40.677 251.1 14.7 248 12.1
2007-02-19 09:40:21 51°10.876 2°40.647 252.7 14.7 249 12.2
2007-02-19 09:40:26 51°10.869 2°40.617 254 14.7 250 12.2
2007-02-19 09:40:31 51°10.863 2°40.586 255.1 14.7 251 12.2
2007-02-19 09:40:36 51°10.856 2°40.555 256.1 14.7 251 12.3
2007-02-19 09:40:41 51°10.85 2°40.524 257 14.7 253 12.3
2007-02-19 09:40:46 51°10.844 2°40.493 257.6 14.7 253 12.4
2007-02-19 09:40:51 51°10.839 2°40.462 258.3 14.7 254 12.4
2007-02-19 09:40:56 51°10.833 2°40.431 258.9 14.7 255 12.5
2007-02-19 09:41:01 51°10.828 2°40.399 260 14.7 256 12.6
2007-02-19 09:41:06 51°10.823 2°40.368 260.7 14.7 255 12.6
2007-02-19 09:41:11 51°10.818 2°40.336 261.5 14.7 257 12.7
2007-02-19 09:41:16 51°10.813 2°40.305 262 14.7 256 12.6
2007-02-19 09:41:21 51°10.809 2°40.273 262 14.7 257 12.7
2007-02-19 09:41:26 51°10.804 2°40.241 262.3 14.7 256 12.8
2007-02-19 09:41:31 51°10.799 2°40.21 262.4 14.7 257 12.9
2007-02-19 09:41:36 51°10.795 2°40.178 262.7 14.7 257 12.9
2007-02-19 09:41:41 51°10.79 2°40.146 262.7 14.7 257 13
2007-02-19 09:41:46 51°10.786 2°40.115 262.9 14.7 258 13
2007-02-19 09:41:51 51°10.781 2°40.083 262.9 14.8 256 13
2007-02-19 09:41:56 51°10.776 2°40.051 262.6 14.8 257 13.1
2007-02-19 09:42:01 51°10.772 2°40.02 262.6 14.8 256 13.2
2007-02-19 09:42:06 51°10.767 2°39.988 262.5 14.8 257 13.2
2007-02-19 09:42:11 51°10.762 2°39.956 262.5 14.8 256 13.3
2007-02-19 09:42:16 51°10.757 2°39.925 262.4 14.8 256 13.4
2007-02-19 09:42:21 51°10.752 2°39.893 262.2 14.8 256 13.4
2007-02-19 09:42:26 51°10.748 2°39.861 262 14.8 256 13.5
2007-02-19 09:42:31 51°10.743 2°39.829 262 14.8 256 13.5
2007-02-19 09:42:36 51°10.738 2°39.798 262.2 14.8 257 13.5
2007-02-19 09:42:41 51°10.733 2°39.766 262.2 14.8 256 13.6
2007-02-19 09:42:46 51°10.728 2°39.734 262.2 14.8 256 13.6
2007-02-19 09:42:51 51°10.723 2°39.702 262.2 14.8 256 13.6
2007-02-19 09:42:56 51°10.718 2°39.67 262 14.9 256 13.6
2007-02-19 09:43:01 51°10.713 2°39.639 262 14.9 256 13.7
2007-02-19 09:43:06 51°10.708 2°39.607 262 14.9 256 13.8
2007-02-19 09:43:11 51°10.703 2°39.575 262 14.8 256 13.8
2007-02-19 09:43:16 51°10.698 2°39.543 262 14.8 257 13.9
2007-02-19 09:43:21 51°10.693 2°39.512 262.3 14.9 256 14
2007-02-19 09:43:26 51°10.689 2°39.48 262.3 14.8 257 14
2007-02-19 09:43:31 51°10.684 2°39.448 262.3 14.9 256 14.2
2007-02-19 09:43:36 51°10.679 2°39.416 262.4 14.9 256 14.2
2007-02-19 09:43:41 51°10.674 2°39.384 262.4 14.9 257 14.4
2007-02-19 09:43:46 51°10.669 2°39.352 262.3 14.9 256 14.5
2007-02-19 09:43:51 51°10.664 2°39.32 262 14.9 256 14.7
2007-02-19 09:43:56 51°10.659 2°39.288 262 14.9 256 14.7
2007-02-19 09:44:01 51°10.654 2°39.257 262 14.9 256 14.8
2007-02-19 09:44:06 51°10.649 2°39.225 262.1 14.9 256 14.9
2007-02-19 09:44:11 51°10.644 2°39.193 262.1 14.9 256 15
2007-02-19 09:44:16 51°10.639 2°39.161 261.7 14.9 256 15.1
2007-02-19 09:44:21 51°10.634 2°39.129 261.7 14.9 256 15.2
2007-02-19 09:44:26 51°10.63 2°39.097 262.3 14.9 256 15.4
2007-02-19 09:44:31 51°10.625 2°39.065 262.6 14.9 257 15.4
2007-02-19 09:44:36 51°10.62 2°39.033 262.7 14.8 257 15.5
2007-02-19 09:44:41 51°10.615 2°39.001 262.5 14.9 256 15.7
2007-02-19 09:44:46 51°10.61 2°38.97 262.1 14.8 257 15.8
2007-02-19 09:44:51 51°10.605 2°38.938 262.4 14.8 256 15.7
2007-02-19 09:44:56 51°10.601 2°38.906 262.2 14.8 257 15.8
2007-02-19 09:45:01 51°10.596 2°38.874 262.2 14.8 256 15.9
2007-02-19 09:45:06 51°10.591 2°38.843 262.2 14.8 257 16
2007-02-19 09:45:11 51°10.586 2°38.811 262 14.8 257 16.1
2007-02-19 09:45:16 51°10.582 2°38.779 262.5 14.7 257 16.1
2007-02-19 09:45:21 51°10.577 2°38.748 262.2 14.8 256 16.2
2007-02-19 09:45:26 51°10.572 2°38.716 262.2 14.7 257 16.3
2007-02-19 09:45:31 51°10.567 2°38.684 262.3 14.8 256 16.4
2007-02-19 09:45:36 51°10.563 2°38.652 262.5 14.8 258 16.4
2007-02-19 09:45:41 51°10.558 2°38.621 262.8 14.7 256 16.6
2007-02-19 09:45:46 51°10.554 2°38.589 262.6 14.7 257 16.6
2007-02-19 09:45:51 51°10.549 2°38.557 262.5 14.7 257 16.7
2007-02-19 09:45:56 51°10.545 2°38.526 262.8 14.7 258 16.7
2007-02-19 09:46:01 51°10.54 2°38.494 263 14.7 257 16.8
2007-02-19 09:46:06 51°10.536 2°38.463 262.9 14.7 257 16.8
2007-02-19 09:46:11 51°10.531 2°38.431 262.7 14.6 257 16.8
2007-02-19 09:46:16 51°10.527 2°38.4 262.6 14.6 257 16.9
2007-02-19 09:46:21 51°10.522 2°38.368 262.3 14.6 257 17
2007-02-19 09:46:26 51°10.517 2°38.337 262.2 14.6 256 16.9
2007-02-19 09:46:31 51°10.512 2°38.305 261.8 14.6 257 17
2007-02-19 09:46:36 51°10.507 2°38.274 262 14.5 256 17.1
2007-02-19 09:46:41 51°10.503 2°38.243 262.1 14.5 257 17.1
2007-02-19 09:46:46 51°10.498 2°38.212 262.2 14.6 257 17.1
2007-02-19 09:46:51 51°10.494 2°38.18 262.7 14.5 258 17
2007-02-19 09:46:56 51°10.49 2°38.149 263.4 14.5 258 17.1
2007-02-19 09:47:01 51°10.486 2°38.118 264.2 14.5 259 17.1
2007-02-19 09:47:06 51°10.482 2°38.086 264.3 14.5 259 17.1
2007-02-19 09:47:11 51°10.479 2°38.055 264.9 14.5 259 17.1
2007-02-19 09:47:16 51°10.475 2°38.024 265.2 14.4 260 17.1
2007-02-19 09:47:21 51°10.471 2°37.992 265.5 14.4 259 17.1
2007-02-19 09:47:26 51°10.468 2°37.961 265.3 14.4 260 17.2
2007-02-19 09:47:31 51°10.464 2°37.93 265.3 14.4 260 17.1
2007-02-19 09:47:36 51°10.461 2°37.898 265.6 14.4 261 17
2007-02-19 09:47:41 51°10.458 2°37.867 266.2 14.4 262 17.1
2007-02-19 09:47:46 51°10.455 2°37.835 267.3 14.4 262 17.1
2007-02-19 09:47:51 51°10.453 2°37.804 267.8 14.4 263 17
2007-02-19 09:47:56 51°10.45 2°37.773 268.1 14.3 262 17
2007-02-19 09:48:01 51°10.448 2°37.741 268.5 14.3 263 16.9
2007-02-19 09:48:05 51°10.446 2°37.716 268.7 14.3 263 16.8
2007-02-19 09:48:11 51°10.443 2°37.679 268.7 14.3 263 16.9
2007-02-19 09:48:16 51°10.441 2°37.647 268.7 14.3 263 16.9
2007-02-19 09:48:21 51°10.438 2°37.616 268.7 14.3 263 16.7
2007-02-19 09:48:25 51°10.437 2°37.591 269.4 14.3 265 16.7
2007-02-19 09:48:31 51°10.435 2°37.553 270.3 14.3 265 16.7
2007-02-19 09:48:36 51°10.433 2°37.521 270.6 14.3 266 16.6
2007-02-19 09:48:41 51°10.432 2°37.49 271.3 14.3 265 16.4
2007-02-19 09:48:46 51°10.43 2°37.459 271.6 14.3 266 16.3
2007-02-19 09:48:51 51°10.428 2°37.427 271.6 14.3 265 16.3
2007-02-19 09:48:56 51°10.427 2°37.396 271.5 14.3 266 16.2
2007-02-19 09:49:01 51°10.425 2°37.364 271.5 14.3 265 16
2007-02-19 09:49:06 51°10.424 2°37.333 271.4 14.3 266 15.6
2007-02-19 09:49:11 51°10.422 2°37.301 271.8 14.3 266 15.8
2007-02-19 09:49:16 51°10.421 2°37.27 272 14.3 265 15.6
2007-02-19 09:49:21 51°10.419 2°37.238 271.7 14.3 266 15.5
2007-02-19 09:49:26 51°10.418 2°37.207 271.8 14.3 266 15.5
2007-02-19 09:49:31 51°10.416 2°37.175 271.9 14.3 266 15
2007-02-19 09:49:36 51°10.415 2°37.144 272 14.3 267 15
2007-02-19 09:49:41 51°10.414 2°37.112 271.9 14.2 267 14.9
2007-02-19 09:49:46 51°10.415 2°37.081 273.9 14.2 272 14.4
2007-02-19 09:49:51 51°10.416 2°37.05 277.9 14.1 272 14.2
2007-02-19 09:49:56 51°10.417 2°37.019 280 14.1 275 14.1
2007-02-19 09:50:01 51°10.419 2°36.988 281.8 14.1 275 13.5
2007-02-19 09:50:06 51°10.422 2°36.958 282.9 14 278 12.9
2007-02-19 09:50:11 51°10.424 2°36.927 284.5 14 278 12.1
2007-02-19 09:50:16 51°10.427 2°36.896 285.2 14 279 11.7
2007-02-19 09:50:21 51°10.431 2°36.866 285.9 13.9 280 11.3
2007-02-19 09:50:26 51°10.435 2°36.837 288.8 13.8 284 11
2007-02-19 09:50:31 51°10.441 2°36.807 291.9 13.7 285 10.3
2007-02-19 09:50:36 51°10.447 2°36.779 294.4 13.6 288 10
2007-02-19 09:50:41 51°10.453 2°36.751 296.3 13.5 289 9
2007-02-19 09:50:46 51°10.459 2°36.723 297.6 13.4 290 8.9
2007-02-19 09:50:51 51°10.466 2°36.696 298.7 13.3 291 8.2
2007-02-19 09:50:56 51°10.473 2°36.669 299.3 13.1 293 8.1
2007-02-19 09:51:01 51°10.482 2°36.645 304.2 12.9 299 7.9
2007-02-19 09:51:06 51°10.491 2°36.621 308.6 12.7 303 7.9
2007-02-19 09:51:11 51°10.502 2°36.599 312.7 12.7 308 8
2007-02-19 09:51:16 51°10.514 2°36.579 317 12.6 313 8.1
2007-02-19 09:51:21 51°10.527 2°36.56 322.8 12.7 317 8.2
2007-02-19 09:51:26 51°10.541 2°36.543 328 12.5 324 8.3
2007-02-19 09:51:31 51°10.556 2°36.528 333.7 12.6 328 8.5
2007-02-19 09:51:36 51°10.571 2°36.515 336.9 12.6 332 8.8
2007-02-19 09:51:41 51°10.587 2°36.505 342.2 12.5 338 8.8
2007-02-19 09:51:46 51°10.604 2°36.497 347.1 12.6 343 9
2007-02-19 09:51:51 51°10.621 2°36.49 352.4 12.5 346 9.2
2007-02-19 09:51:56 51°10.638 2°36.486 355.1 12.5 351 9.4
2007-02-19 09:52:01 51°10.656 2°36.483 359.3 12.5 355 9.8
2007-02-19 09:52:06 51°10.673 2°36.484 3.6 12.5 1 9.7
2007-02-19 09:52:11 51°10.691 2°36.486 9.1 12.5 4 9.9
2007-02-19 09:52:16 51°10.708 2°36.489 12.6 12.6 7 9.8
2007-02-19 09:52:21 51°10.725 2°36.493 14.9 12.5 9 9.6
2007-02-19 09:52:26 51°10.742 2°36.498 16.6 12.5 10 10.3
2007-02-19 09:52:31 51°10.759 2°36.504 18.2 12.6 12 10
2007-02-19 09:52:36 51°10.776 2°36.51 19.2 12.6 12 10.6